Voltar ao catálogo

STARLINK-33649

AtivoComunicaçõesVLEO
NORAD 63416·PAYLOAD·🇺🇸 United States

Lançado Mar 31, 2025 de Cape Canaveral Space Force Station

Loading…

Próximas Passagens (próximas 24 horas)

TLE

AtualizadoSource: CelesTrak SupGP

Época: Sep 15, 2026, 03:11 UTC

1 63416C 25065T   26258.13312500  .00045133  00000+0  16343-2 0  2588
2 63416  43.0017 116.9630 0001446 273.7797 133.3640 15.27563453    12

Acompanhe STARLINK-33649 em tempo real com AllMySat

Download on the App Store